Spearfish, SD

1:35 PM MST on February 24, 2017 (GMT -0700)
Black Hills-Ice

Weather History for KSPF - April, 2013

Change the Weather History Date:

Wednesday, April 17, 2013

  Actual Average (KEFC) Record (KEFC)
Temperature  
Mean Temperature 24 °F -  
Max Temperature 24 °F 62 °F 84 °F (1948)
Min Temperature 23 °F 32 °F 13 °F (1956)
Degree Days  
Heating Degree Days 42    
Moisture  
Dew Point 22 °F    
Average Humidity 93    
Maximum Humidity 100    
Minimum Humidity 80    
Precipitation  
Precipitation 2.44 in - - ()
Sea Level Pressure  
Sea Level Pressure 30.17 in    
Wind  
Wind Speed 5 mph (NNW)    
Max Wind Speed 15 mph    
Max Gust Speed 21 mph    
Visibility 4 miles    
Events Rain , Snow , Thunderstorm    
Averages and records for this station are not official NWS values.
T = Trace of Precipitation, MM = Missing Value Source: NWS Daily Summary

Daily Weather History Graph

Daily Weather History Graph

Search for Another Location

Airport or City:

Trip Planner

Search our weather history database for the weather conditions in past years. The results will help you decide how hot, cold, wet, or windy it might be!

Date:

Astronomy

Apr. 17, 2013 Rise Set
Actual Time 7:07 AM CDT 8:42 PM CDT
Civil Twilight 6:36 AM CDT 9:13 PM CDT
Nautical Twilight 5:59 AM CDT 9:50 PM CDT
Astronomical Twilight 5:20 AM CDT 10:30 PM CDT
Moon 12:18 PM CDT (4/17) 2:26 AM CDT (4/17)
Length of Visible Light 14h 36m
Length of Day
13h 35m
Waxing Crescent, 42% of the Moon is Illuminated
Apr 17
Waxing Crescent
Apr 18
First Quarter
Apr 25
Full
May 2
Last Quarter
May 9
New

Hourly Weather History & Observations

Time (CDT) Temp. Windchill Dew Point Humidity Pressure Visibility Wind Dir Wind Speed Gust Speed Precip Events Conditions
12:15 AM 23.0 °F - 23.0 °F 100% 30.20 in 3.0 mi Calm Calm - 0.04 in Snow Light Snow
12:35 AM 23.0 °F 18.4 °F 23.0 °F 100% 30.20 in 2.5 mi NNW 3.5 mph - 0.11 in Snow Light Snow
12:55 AM 23.0 °F - 23.0 °F 100% 30.21 in 2.5 mi Calm Calm - 0.19 in Snow Light Snow
1:15 AM 23.0 °F - 23.0 °F 100% 30.20 in 3.0 mi Calm Calm - 0.04 in Snow Light Snow
1:35 AM 23.0 °F - 23.0 °F 100% 30.19 in 2.5 mi Calm Calm - 0.13 in Snow Light Snow
1:55 AM 23.0 °F 18.4 °F 23.0 °F 100% 30.20 in 2.5 mi WSW 3.5 mph - 0.20 in Snow Light Snow
2:15 AM 23.0 °F 18.4 °F 23.0 °F 100% 30.19 in 2.0 mi West 3.5 mph - 0.03 in Snow Light Snow
2:35 AM 23.0 °F 18.4 °F 23.0 °F 100% 30.19 in 2.5 mi West 3.5 mph - 0.06 in Snow Light Snow
2:55 AM 23.0 °F 18.4 °F 23.0 °F 100% 30.18 in 3.0 mi WSW 3.5 mph - 0.11 in Snow Light Snow
3:15 AM 23.0 °F - 23.0 °F 100% 30.16 in 4.0 mi Calm Calm - N/A Snow Light Snow
3:35 AM 23.0 °F 18.4 °F 23.0 °F 100% 30.16 in 4.0 mi West 3.5 mph - 0.03 in Snow Light Snow
3:55 AM 23.0 °F 18.4 °F 23.0 °F 100% 30.17 in 4.0 mi West 3.5 mph - 0.09 in Snow Light Snow
4:15 AM 23.0 °F - 23.0 °F 100% 30.16 in 4.0 mi Calm Calm - 0.01 in Snow Light Snow
4:35 AM 23.0 °F 18.4 °F 23.0 °F 100% 30.17 in 3.0 mi WSW 3.5 mph - 0.02 in Snow Light Snow
4:55 AM 23.0 °F - 23.0 °F 100% 30.15 in 3.0 mi Calm Calm - 0.04 in Snow Light Snow
5:15 AM 23.0 °F - 23.0 °F 100% 30.15 in 2.5 mi Calm Calm - N/A Snow Light Snow
5:35 AM 23.0 °F - 23.0 °F 100% 30.15 in 2.0 mi Calm Calm - N/A Snow Light Snow
5:55 AM 23.0 °F - 23.0 °F 100% 30.14 in 3.0 mi Calm Calm - 0.01 in Snow Light Snow
6:15 AM 23.0 °F - 21.2 °F 93% 30.14 in 4.0 mi Calm Calm - N/A Snow Light Snow
6:35 AM 23.0 °F - 23.0 °F 100% 30.14 in 2.5 mi Calm Calm - N/A   Partly Cloudy
6:55 AM 23.0 °F - 23.0 °F 100% 30.15 in 1.5 mi Calm Calm - N/A Snow Light Snow
7:15 AM 23.0 °F - 23.0 °F 100% 30.15 in 1.2 mi Calm Calm - 0.02 in Snow Light Snow
7:35 AM 23.0 °F 17.0 °F 23.0 °F 100% 30.16 in 1.5 mi ESE 4.6 mph - 0.03 in Snow Light Snow
7:55 AM 23.0 °F 18.4 °F 23.0 °F 100% 30.16 in 2.0 mi ESE 3.5 mph - 0.04 in Snow Light Snow
8:15 AM 23.0 °F 18.4 °F 23.0 °F 100% 30.16 in 3.0 mi East 3.5 mph - N/A Snow Light Snow
8:55 AM 24.8 °F 17.9 °F 21.2 °F 86% 30.17 in 5.0 mi East 5.8 mph - N/A   Clear
9:15 AM 24.8 °F 17.9 °F 21.2 °F 86% 30.17 in 3.0 mi East 5.8 mph - N/A   Partly Cloudy
9:35 AM 24.8 °F 16.1 °F 21.2 °F 86% 30.17 in 5.0 mi ENE 8.1 mph - N/A   Clear
9:55 AM 24.8 °F 15.3 °F 21.2 °F 86% 30.17 in 5.0 mi ENE 9.2 mph - N/A   Clear
10:15 AM 24.8 °F 15.3 °F 21.2 °F 86% 30.17 in 9.0 mi NE 9.2 mph - N/A   Partly Cloudy
10:35 AM 24.8 °F 15.3 °F 21.2 °F 86% 30.17 in 7.0 mi NE 9.2 mph - N/A   Scattered Clouds
10:55 AM 24.8 °F 14.6 °F 23.0 °F 93% 30.16 in 7.0 mi NE 10.4 mph - N/A   Partly Cloudy
11:15 AM 24.8 °F 16.1 °F 23.0 °F 93% 30.16 in 7.0 mi ENE 8.1 mph - N/A   Partly Cloudy
11:35 AM 24.8 °F 16.1 °F 23.0 °F 93% 30.16 in 7.0 mi ENE 8.1 mph - N/A   Partly Cloudy
11:55 AM 24.8 °F 16.9 °F 23.0 °F 93% 30.16 in 3.0 mi NE 6.9 mph - N/A   Partly Cloudy
12:15 PM 24.8 °F 16.1 °F 21.2 °F 86% 30.16 in 4.0 mi NE 8.1 mph - N/A   Partly Cloudy
12:35 PM 24.8 °F 15.3 °F 21.2 °F 86% 30.15 in 9.0 mi ENE 9.2 mph - N/A   Mostly Cloudy
12:55 PM 24.8 °F 14.6 °F 23.0 °F 93% 30.15 in 5.0 mi NE 10.4 mph - N/A   Scattered Clouds
1:15 PM 24.8 °F 16.1 °F 21.2 °F 86% 30.16 in 5.0 mi ENE 8.1 mph - N/A   Mostly Cloudy
1:35 PM 24.8 °F 16.1 °F 21.2 °F 86% 30.16 in 4.0 mi ENE 8.1 mph - N/A Thunderstorm Thunderstorm
1:55 PM 24.8 °F 17.9 °F 21.2 °F 86% 30.16 in 4.0 mi NE 5.8 mph - N/A   Mostly Cloudy
2:15 PM 24.8 °F 20.5 °F 21.2 °F 86% 30.17 in 1.2 mi NE 3.5 mph - 0.03 in Snow Light Snow
2:35 PM 24.8 °F 19.1 °F 23.0 °F 93% 30.17 in 1.2 mi ENE 4.6 mph - 0.11 in Snow Light Snow
3:15 PM 24.8 °F 20.5 °F 23.0 °F 93% 30.16 in 1.5 mi NNW 3.5 mph - 0.01 in Snow Light Snow
3:35 PM 24.8 °F 17.9 °F 23.0 °F 93% 30.16 in 2.5 mi NW 5.8 mph - 0.02 in Snow Light Snow
3:55 PM 24.8 °F 16.9 °F 23.0 °F 93% 30.16 in 1.8 mi NW 6.9 mph - 0.06 in Snow Light Snow
4:15 PM 24.8 °F 16.1 °F 23.0 °F 93% 30.15 in 1.2 mi NW 8.1 mph - 0.03 in Snow Light Snow
4:35 PM 24.8 °F 15.3 °F 23.0 °F 93% 30.15 in 1.2 mi NW 9.2 mph - 0.12 in Snow Light Snow
4:55 PM 24.8 °F 13.4 °F 23.0 °F 93% 30.16 in 1.5 mi NW 12.7 mph - 0.15 in Snow Light Snow
5:15 PM 24.8 °F 13.4 °F 23.0 °F 93% 30.16 in 0.8 mi NW 12.7 mph - 0.09 in Snow Light Snow
5:35 PM 24.8 °F 12.4 °F 23.0 °F 93% 30.15 in 0.8 mi NW 15.0 mph 20.7 mph 0.24 in Snow Light Snow
5:55 PM 24.8 °F 13.4 °F 23.0 °F 93% 30.16 in 3.0 mi NW 12.7 mph 20.7 mph 0.27 in Rain Light Freezing Rain
6:15 PM 24.8 °F 12.9 °F 21.2 °F 86% 30.17 in 1.5 mi NW 13.8 mph - 0.02 in Snow Light Snow
6:35 PM 24.8 °F 14.6 °F 21.2 °F 86% 30.17 in 1.2 mi WNW 10.4 mph - 0.06 in Snow Light Snow
6:55 PM 24.8 °F 14.0 °F 19.4 °F 80% 30.18 in 4.0 mi NW 11.5 mph 16.1 mph 0.07 in Snow Light Snow
7:15 PM 24.8 °F 15.3 °F 19.4 °F 80% 30.17 in 8.0 mi WNW 9.2 mph - N/A Snow Light Snow
7:35 PM 24.8 °F 13.4 °F 19.4 °F 80% 30.18 in 10.0 mi WNW 12.7 mph - N/A   Mostly Cloudy
7:55 PM 24.8 °F 14.0 °F 19.4 °F 80% 30.18 in 10.0 mi WNW 11.5 mph - N/A   Overcast
8:15 PM 24.8 °F 14.0 °F 21.2 °F 86% 30.18 in 2.5 mi WNW 11.5 mph - N/A   Scattered Clouds
8:55 PM 23.0 °F 12.4 °F 23.0 °F 100% 30.18 in 1.5 mi WNW 10.4 mph - 0.11 in Snow Light Snow
9:15 PM 23.0 °F 11.1 °F 23.0 °F 100% 30.18 in 1.0 mi WNW 12.7 mph - 0.11 in Snow Light Snow
9:35 PM 23.0 °F 11.1 °F 21.2 °F 93% 30.19 in 1.5 mi WNW 12.7 mph - 0.26 in Snow Light Snow
9:55 PM 23.0 °F 11.1 °F 21.2 °F 93% 30.19 in 1.8 mi WNW 12.7 mph - 0.49 in Snow Light Snow
10:15 PM 23.0 °F 13.1 °F 21.2 °F 93% 30.21 in 2.5 mi WNW 9.2 mph - 0.10 in Snow Light Snow
10:35 PM 23.0 °F 13.1 °F 21.2 °F 93% 30.20 in 5.0 mi WNW 9.2 mph - 0.13 in Snow Light Snow
10:55 PM 23.0 °F 13.1 °F 21.2 °F 93% 30.19 in 5.0 mi WNW 9.2 mph - 0.16 in Snow Light Snow
11:15 PM 23.0 °F 11.1 °F 21.2 °F 93% 30.19 in 2.5 mi WNW 12.7 mph 16.1 mph 0.15 in Snow Light Snow
11:35 PM 23.0 °F 13.1 °F 19.4 °F 86% 30.18 in 3.0 mi WNW 9.2 mph - 0.25 in Snow Light Snow
11:55 PM 23.0 °F 13.1 °F 21.2 °F 93% 30.17 in 6.0 mi NW 9.2 mph - 0.34 in Snow Light Snow